Main page
METAR-TAF:

METAR-TAF

Airports :

Garner Field

Uvalde, Texas, United States

latitude: 29-12-40N, longitude: 099-44-36W, elevation: 941 ft

Current weather observation

The report was made 27 minutes ago, at 20:35 UTC
Wind 12 mph from the Southeast with gusts up to 21 mph
Temperature 81°F
Humidity 37%
Pressure 29.88 in. Hg
Visibility: 10 miles
Clear sky

METAR: KUVA 012035Z AUTO 13010G18KT 10SM CLR 27/11 A2988 RMK AO2 T02710106

Time: 16:02 (21:02 UTC)


TAF: missing

Weather observations and forecasts of more than 4000 airports (METAR and TAF reports).

The available stations are represented by yellow and red dots on the map.

Hover mouse over dot to see the name of the station.

Then click to see weather observations and forecasts.

To change the map : click on the green buttons with a black cross to zoom in, on the green button with a dash to zoom out, or on the green arrows for adjacent maps.


METAR-TAF: